Probability
0 0 0 0 0 0 0 0 0 0 0 0 0 0 0 0 0 0 0 0 0 0 0 0 0 0 0 0 0 0 0 0 0 0 0 0 0 0 0 0 0 0 0 0 0 0 0 0 0
0 0 0 0 0 0 0 0 0 0 0 0 0 0 0 0 0 0 0 0 0 0 0 0 0 0 0 0 0 0 0 0 0 0 0 0 0 0 0 0 0 0 0 0 0 0 0 0 0
0 0 0 0 0 0 0 0 0 0 0 0 0 0 0 0 0 0 0 0 0 0 0 0 0 0 0 0 0 0 0 0 0 0 0 0 0 0 0 0 0 0 0 0 0 0 0 0 0
0 0 0 0 0 0 0 0 0 0 0 0 0 0 0 0 0 0 0 0 0 0 0 0 0 0 0 0 0 0 0 0 0 0 0 0 0 0 0 0 0 0 0 0 0 0 0 0 0
0 0 0 0 0 0 0 0 0 0 0 0 0 0 0 0 0 0 0 0 0 0 0 0 0 0 0 0 0 0 0 0 0 0 0 0 0 0 0 0 0 0 0 0 0 0 0 0 0
0 0 0 0 0 0 0 0 0 0 0 0 0 0 0 0 0 0 0 0 0 0 0 0 0 0 0 0 0 0 0 0 0 0 0 0 0 0 0 0 0 0 0 0 0 0 0 0 0
0 0 0 0 0 0 0 0 0 0 0 0 0 0 0 0 0 0 0 0 0 0 0 0 0 0 0 0 0 0 0 0 0 0 0 0 0 0 0 0 0 0 0 0 0 0 0 0 0
0 0 0 0 0 0 0 0 0 0 0 0 0 0 0 0 1 0 0 0 0 0 0 0 0 0 0 0 0 0 0 0 0 0 0 0 0 0 0 0 0 0 0 0 0 0 0 0 0
0 0 0 0 0 0 0 0 0 0 0 0 0 0 0 3 5 3 0 0 0 0 0 0 0 0 0 0 0 0 0 0 0 0 0 0 0 0 1 2 2 0 0 0 0 0 0 0 0
0 0 0 0 0 0 0 0 0 0 0 0 0 0 0 5 11 9 2 0 0 0 0 0 0 0 0 0 0 0 0 0 0 0 0 0 0 0 2 4 3 0 0 0 0 0 0 0 0
0 0 0 0 0 0 0 0 0 0 0 0 0 0 1 7 18 18 8 2 1 0 0 0 0 0 0 0 0 0 0 1 0 0 0 0 0 0 1 2 2 0 0 0 0 0 0 0 0
0 0 0 0 0 0 0 0 0 0 0 0 0 1 4 9 17 19 12 6 3 2 1 1 1 2 3 5 4 2 1 2 1 1 1 0 0 0 0 0 0 0 0 0 0 0 0 0 0
0 0 0 0 0 0 0 0 0 0 0 0 0 2 5 8 12 18 22 23 18 10 3 2 2 5 14 24 25 15 9 8 8 7 7 4 2 0 0 0 0 0 0 0 0 0 0 0 0
0 0 0 0 0 0 0 0 0 0 0 2 7 16 25 29 31 40 53 54 41 24 12 5 3 8 23 41 48 35 21 19 21 25 29 27 22 18 12 4 1 1 1 1 1 0 0 0 0
0 0 0 0 0 0 0 0 3 4 4 11 29 51 66 70 72 77 84 79 64 52 43 33 26 24 33 50 59 47 28 26 38 51 59 57 50 45 35 18 9 9 9 7 5 2 0 0 1
0 0 0 0 0 0 0 3 12 18 20 34 62 83 93 96 94 93 91 88 84 84 82 77 69 62 59 68 73 59 42 42 56 70 78 74 63 58 54 41 32 33 31 24 14 6 4 4 4
0 0 0 0 0 0 0 9 27 42 49 65 83 90 90 88 84 79 78 85 94 98 99 99 97 92 88 90 90 82 72 70 71 75 82 81 69 60 60 60 57 58 60 52 38 27 23 19 13
0 0 0 0 0 0 1 12 35 58 74 86 90 85 76 70 63 54 54 66 82 92 96 99 100 99 98 99 98 97 94 90 82 78 80 82 73 61 60 68 70 73 79 77 67 56 42 26 17
0 0 0 0 0 0 1 8 23 45 66 81 85 77 66 57 49 41 42 53 69 82 88 92 95 95 96 98 99 100 99 96 88 79 73 71 65 55 55 64 72 79 84 84 80 69 42 18 9
0 0 0 0 0 0 0 2 7 16 31 49 59 60 53 44 35 31 35 44 55 66 71 74 79 82 84 86 88 92 94 91 85 76 67 61 55 48 47 56 65 76 84 82 75 59 32 9 1
0 0 0 0 0 0 0 0 0 1 6 14 23 29 27 20 14 13 16 20 26 37 44 51 61 70 71 70 71 77 82 82 78 74 66 57 48 39 36 39 46 60 74 72 55 35 17 5 1
0 0 0 0 0 0 0 0 0 0 0 0 3 5 6 3 1 0 1 1 4 10 18 31 49 64 67 61 57 61 67 71 72 72 66 56 41 27 19 18 22 35 48 45 26 11 4 1 1
0 0 0 0 0 0 0 0 0 0 0 0 0 0 0 0 0 0 0 0 0 1 4 15 33 50 54 49 45 46 50 57 64 67 64 53 34 16 6 4 5 11 21 20 10 3 2 2 2
0 0 0 0 0 0 0 0 0 0 0 0 0 0 0 0 0 0 0 0 0 0 1 5 14 24 27 25 27 31 37 46 59 65 57 41 23 9 3 1 0 2 8 11 6 2 1 2 2
0 0 0 0 0 0 0 0 0 0 0 0 0 0 0 0 0 0 0 0 0 0 0 1 3 7 8 8 12 21 32 48 64 61 44 25 12 5 2 1 0 1 4 5 3 1 0 1 1
0 0 0 0 0 0 0 0 0 0 0 0 0 0 0 0 0 0 0 0 0 0 0 0 1 2 2 3 8 19 33 48 54 43 25 11 4 2 1 0 0 0 1 1 1 0 0 0 0
0 0 0 0 0 0 0 0 0 0 0 0 0 0 0 0 0 0 0 0 0 0 0 0 1 2 4 6 11 20 28 29 25 16 7 2 1 1 0 0 0 0 0 0 0 0 0 0 0
0 0 0 0 0 0 0 0 0 0 0 0 0 0 0 0 0 0 0 0 0 0 0 0 1 2 5 9 11 13 13 9 4 1 0 0 0 0 0 0 0 0 0 0 0 0 0 0 0
0 0 0 0 0 0 0 0 0 0 0 0 0 0 0 0 0 0 0 0 0 0 0 0 0 1 3 5 5 4 3 1 0 0 0 0 0 0 0 0 0 0 0 0 0 0 0 0 0
0 0 0 0 0 0 0 0 0 0 0 0 0 0 0 0 0 0 0 0 0 0 0 0 0 0 1 1 1 1 1 0 0 0 0 0 0 0 0 0 0 0 0 0 0 0 0 0 0
Wind_Speed
8 7 6 6 8 6 4 5 3 2 3 3 5 2 2 2 4 5 6 14 15 17 19 19 16 15 14 13 14 15 15 15 14 14 13 13 12 10 9 9 8 7 7 6 7 7 7 7 7
4 4 6 8 7 1 5 2 2 3 4 3 4 3 3 1 3 5 9 13 16 17 18 18 18 15 15 14 13 14 15 14 13 12 12 11 11 11 10 9 8 7 7 6 5 5 5 5 5
5 8 7 6 3 6 6 3 4 6 4 2 2 1 3 4 3 5 10 15 15 15 15 17 18 16 15 14 13 13 14 13 12 11 11 11 11 10 10 9 7 7 6 6 5 4 4 4 3
6 6 7 6 5 8 4 3 6 5 3 1 2 0 3 5 2 7 13 16 16 15 14 18 18 17 16 14 14 13 12 12 11 10 9 9 9 9 9 9 8 7 6 5 5 5 4 3 2
6 6 7 3 5 6 4 3 5 3 1 1 2 1 2 5 6 10 14 16 16 15 14 18 18 17 16 14 14 13 13 12 11 10 10 9 8 8 8 8 8 7 6 5 5 6 5 4 4
6 6 8 1 5 3 2 1 5 5 3 1 2 2 5 8 8 12 14 15 16 15 14 17 18 16 15 15 14 14 13 12 11 11 10 9 8 7 7 7 7 7 7 7 6 5 5 4 5
7 7 7 3 2 4 5 2 4 5 5 4 2 1 5 10 10 12 13 13 14 15 14 15 17 16 16 15 15 15 14 13 12 11 11 10 9 9 9 8 7 7 7 7 7 7 6 6 6
6 7 8 4 2 4 5 3 3 5 3 1 4 4 2 11 12 12 13 13 13 14 14 14 15 15 15 16 16 14 14 13 12 11 10 10 9 9 9 10 10 9 8 8 9 9 8 8 9
5 9 8 2 1 3 7 8 2 1 2 5 6 3 5 14 15 14 13 14 13 12 12 13 13 13 13 13 14 14 13 12 11 11 11 10 10 11 11 11 8 8 9 9 10 10 10 10 12
7 10 5 4 5 6 8 8 4 4 7 8 7 5 6 15 17 16 15 16 15 13 13 10 10 10 10 9 9 10 11 11 11 9 10 9 8 7 7 7 7 9 10 11 12 11 12 13 10
6 7 5 5 6 9 9 8 3 6 7 7 6 6 11 15 17 17 16 15 14 13 12 11 8 8 9 7 6 6 5 5 8 10 9 8 7 6 7 5 8 10 11 10 10 12 10 9 6
5 5 6 9 9 10 10 8 6 6 8 6 4 3 12 16 17 16 14 13 12 12 12 10 10 9 9 8 6 6 5 4 6 8 10 8 6 6 6 5 6 6 5 6 7 6 8 8 9
6 5 6 8 10 10 9 7 6 6 7 6 4 4 11 13 13 12 11 10 10 11 11 10 8 9 8 7 6 7 7 7 8 7 8 9 7 8 7 6 6 8 6 7 7 8 7 7 9
3 7 8 9 8 6 8 8 8 6 9 6 3 4 6 7 9 10 9 9 10 11 12 11 10 9 8 7 7 7 8 7 9 8 10 10 9 8 8 8 8 8 8 7 6 7 7 7 7
6 8 8 5 4 3 6 11 1 11 9 5 3 2 3 4 6 7 9 9 11 10 10 10 9 10 10 11 10 9 10 10 9 9 10 11 12 10 9 9 9 9 8 8 8 9 8 8 8
7 9 7 4 2 1 8 10 9 11 7 4 4 4 6 5 4 4 7 8 8 8 9 9 8 9 11 11 10 9 10 9 8 8 9 11 13 12 10 10 10 9 8 8 7 8 8 7 7
8 6 4 3 2 3 5 4 10 10 6 5 4 5 6 6 5 4 4 6 6 6 6 7 8 8 8 9 9 10 9 9 8 8 8 8 11 13 11 11 10 9 9 8 8 8 7 7 7
2 4 4 3 4 5 3 2 5 7 6 5 4 4 5 5 5 4 4 5 6 7 6 6 6 6 7 7 7 7 8 7 7 7 6 8 7 11 11 11 13 12 9 7 7 8 7 7 8
1 3 3 1 4 7 5 4 2 4 4 4 3 2 2 3 4 3 3 4 5 6 7 7 7 6 6 6 7 7 7 6 6 7 8 8 8 9 10 11 11 10 9 8 8 7 9 9 7
1 2 3 3 3 8 9 8 3 0 2 3 2 1 1 2 3 4 4 5 7 7 7 8 8 7 7 6 5 5 6 6 6 7 9 10 10 10 10 11 9 9 8 8 7 7 8 9 7
3 6 7 11 12 11 11 13 10 7 4 3 3 3 3 2 1 0 2 4 6 7 9 8 9 8 8 8 6 5 6 6 7 9 10 12 11 11 8 7 6 6 7 6 7 7 8 7 6
6 4 8 11 13 12 8 13 8 9 7 5 5 5 6 4 3 4 5 6 7 8 8 9 9 9 8 9 9 10 9 9 9 9 9 8 7 8 8 7 5 5 5 6 7 6 5 6 6
7 6 10 13 13 14 11 11 5 7 7 5 5 4 3 2 4 6 8 9 10 11 11 10 10 11 10 9 10 11 11 11 9 10 10 7 5 5 6 7 7 5 5 5 6 5 6 4 5
5 9 11 11 11 12 4 7 6 3 2 4 3 1 1 3 4 7 9 10 11 12 12 12 12 12 11 11 11 12 14 14 13 12 9 7 5 5 7 7 7 7 5 6 7 6 6 4 4
6 10 8 6 7 4 3 8 3 5 2 1 2 4 6 6 7 9 11 11 12 13 14 14 14 14 13 13 13 14 16 16 15 12 10 8 6 6 8 8 8 7 6 6 6 6 5 4 4
5 8 8 8 9 11 8 8 1 4 3 4 5 7 9 10 9 10 10 10 11 13 13 14 15 16 15 13 12 12 14 10 7 8 6 6 5 6 8 8 8 8 8 7 5 4 4 3 4
5 5 8 10 12 11 7 4 5 5 7 8 8 9 10 10 10 10 9 10 10 11 11 12 13 15 14 12 9 6 4 3 3 4 4 4 4 5 7 7 7 7 6 5 5 3 4 3 2
5 6 5 7 8 10 9 9 5 6 6 5 7 10 9 9 8 8 8 9 8 7 7 9 11 11 10 7 3 2 3 2 2 3 4 4 5 5 7 7 7 6 5 4 4 5 3 2 2
6 7 7 7 8 8 10 7 4 5 8 8 11 12 10 9 8 8 8 8 5 3 3 6 9 11 10 9 9 9 7 5 3 2 3 3 4 5 6 7 7 6 5 4 3 3 3 3 4
11 11 9 10 11 12 13 11 6 7 10 12 15 14 11 8 7 7 8 6 5 3 2 3 6 8 9 10 10 7 5 5 3 2 1 1 3 4 5 5 5 5 5 4 4 4 5 5 5
Wind_Direction
202 216 234 239 241 234 61 71 63 88 106 99 145 182 279 298 312 41 100 150 149 148 145 156 163 165 161 152 145 139 139 142 145 146 149 151 152 152 150 147 143 136 128 121 119 118 117 118 120
220 224 232 242 272 324 88 71 96 55 75 128 162 210 271 290 38 92 147 153 157 152 150 159 160 167 164 158 154 147 144 145 148 150 154 157 157 156 154 151 148 144 138 131 125 126 129 131 137
226 238 264 267 322 16 52 92 96 101 131 179 167 264 333 18 94 147 152 156 161 153 152 149 161 168 168 164 162 157 152 152 153 156 161 166 168 164 158 152 152 153 152 149 144 138 139 146 158
235 231 246 267 35 47 32 123 130 130 134 163 248 176 74 38 108 142 147 157 160 156 159 150 168 170 171 170 167 164 158 158 161 165 170 172 169 168 167 162 162 167 171 172 173 164 164 174 170
243 263 259 244 59 52 62 132 179 229 358 106 233 323 79 100 122 137 151 159 163 162 164 156 172 173 173 174 173 172 169 169 171 175 178 177 174 173 173 175 174 178 186 184 172 178 177 188 197
248 253 263 258 65 40 52 152 239 255 264 254 258 295 110 131 148 153 157 166 167 164 169 157 170 177 178 180 182 182 180 180 180 181 184 184 184 186 188 192 197 195 191 188 186 189 196 211 221
274 274 275 310 29 86 42 357 277 283 254 242 230 259 132 159 162 162 163 172 173 168 169 163 172 180 185 188 190 190 188 188 189 191 191 191 193 200 200 201 212 215 211 206 202 203 213 230 236
281 272 255 241 234 101 41 341 330 274 241 165 202 238 107 162 163 167 168 176 180 174 173 172 176 178 186 189 194 196 195 196 198 201 202 201 203 212 211 212 207 222 230 228 224 222 225 235 241
251 255 250 249 270 64 12 343 6 271 200 203 220 246 54 147 162 172 175 179 182 182 181 181 179 180 191 193 181 194 200 203 207 209 211 216 222 213 201 219 183 217 235 238 239 239 238 242 236
239 250 263 360 320 335 344 335 345 231 223 228 225 181 141 157 168 179 182 182 181 185 185 184 192 180 196 198 179 200 206 199 213 219 211 218 233 245 243 140 188 231 239 240 239 244 247 242 241
239 265 300 284 297 317 319 323 302 280 257 242 243 198 171 174 179 184 186 187 182 186 188 182 196 185 203 207 207 212 216 214 220 227 224 232 242 234 236 225 201 215 225 236 222 227 238 244 244
245 256 280 289 300 301 311 315 303 280 297 352 322 225 181 187 188 187 186 188 185 190 189 191 187 196 208 223 222 229 223 215 225 218 228 229 229 247 250 247 253 241 231 239 255 250 253 262 268
234 264 271 274 279 293 293 283 298 287 333 355 326 196 192 193 186 185 184 186 189 193 195 198 202 206 209 219 240 237 236 231 223 231 223 239 241 240 241 242 248 256 249 236 235 250 260 268 266
297 285 272 268 273 265 269 274 267 338 356 348 311 221 201 188 181 176 175 178 186 197 201 200 206 215 223 225 231 244 250 239 251 235 233 227 239 243 247 241 236 244 249 254 262 261 261 258 261
274 271 255 229 258 257 273 252 333 352 337 341 10 37 96 142 166 176 176 185 194 196 198 202 209 217 223 227 230 234 243 244 242 244 239 236 241 238 240 246 241 239 241 241 246 253 255 256 252
243 244 234 142 283 287 263 248 44 353 345 8 51 85 98 95 131 171 176 188 200 197 194 202 213 218 222 227 231 237 243 250 251 253 251 245 252 253 248 249 246 242 243 243 242 252 258 259 264
215 230 243 173 65 329 278 300 16 5 29 60 70 98 105 107 108 127 171 187 196 199 203 207 215 227 229 231 234 245 251 254 256 254 258 266 266 264 260 262 261 255 251 253 257 252 261 269 270
236 256 236 241 38 323 307 345 6 12 33 66 90 111 132 138 131 140 158 168 179 183 187 193 197 206 218 228 234 240 245 245 245 249 258 273 277 278 273 265 261 259 256 254 258 268 263 267 268
315 278 280 3 359 308 298 294 342 348 19 49 59 89 136 152 164 181 195 212 215 211 211 213 218 204 204 207 215 222 225 227 233 232 234 245 258 268 270 267 265 260 260 257 256 260 262 261 270
190 277 300 255 305 303 295 277 181 259 36 22 35 81 153 196 200 213 246 265 271 267 264 261 253 252 243 230 217 214 212 218 229 244 246 244 247 250 252 250 251 255 253 248 248 251 274 282 279
284 318 321 312 306 270 272 267 186 168 150 108 89 100 108 104 89 318 299 297 294 289 285 284 282 273 265 259 250 236 225 224 220 232 241 243 243 247 234 221 221 237 247 247 251 257 260 274 272
296 339 309 302 297 296 285 289 251 170 164 131 120 107 95 81 48 16 354 342 328 318 306 297 288 278 267 257 253 250 246 246 242 238 238 236 230 225 207 191 190 218 246 249 249 246 256 258 266
324 319 293 289 285 283 264 265 266 167 197 150 130 109 84 50 2 348 339 332 327 324 320 312 304 299 293 281 269 264 261 260 255 242 233 217 197 198 193 176 175 191 226 241 244 232 245 251 267
306 285 269 255 260 263 277 281 270 161 181 149 140 134 309 318 327 329 326 323 321 318 313 309 306 299 292 281 269 258 256 253 244 229 215 198 188 188 192 182 177 188 207 217 225 231 232 250 270
289 315 301 271 253 287 80 277 294 87 137 199 306 306 299 301 310 317 321 321 316 313 310 306 299 292 284 270 256 247 244 242 235 223 212 201 194 193 193 190 185 187 194 210 221 223 237 238 254
333 317 324 312 308 314 286 266 325 131 198 235 265 287 295 297 297 305 312 310 307 309 311 310 303 294 286 272 260 250 248 243 230 217 207 204 200 183 177 187 184 181 185 198 202 209 210 226 243
293 307 333 293 282 279 269 264 258 191 217 233 261 284 293 300 301 300 301 299 304 313 325 329 319 305 294 283 274 259 246 219 184 171 185 184 164 152 160 165 166 165 170 178 188 189 206 220 249
298 314 287 289 298 294 286 272 255 197 232 263 300 310 309 308 300 299 297 298 309 323 342 356 354 340 327 310 307 45 52 67 116 163 156 143 147 155 156 152 146 142 145 161 194 177 160 138 73
215 235 261 283 286 284 289 302 24 275 286 286 310 315 305 301 305 304 297 297 292 299 360 22 23 19 22 39 52 44 27 11 12 39 96 121 143 152 145 136 134 136 138 141 160 137 127 101 76
269 261 257 268 273 260 272 283 305 287 276 277 297 306 302 294 292 294 296 285 264 267 298 19 38 44 50 61 69 59 15 346 354 45 79 169 171 165 142 136 133 134 128 130 135 121 95 82 73